• In Hungary
  • List of Countries
  • For 7 days
  • Water Temperature
  • Satellite Maps
  • Weather Map
  • News
  • Weather Widgets
  • user-avatar
    Login

    Hourly Weather Katsina

    Today, 25 June, Monday

    Time Temperature Precipitation Wind Pressure Humidity
    00:00 +32°C° 0 mm 2 mps 716 mmHg 40%
    01:00 +31°C° 0 mm 2 mps 716 mmHg 42%
    02:00 +31°C° 0 mm 2 mps 715 mmHg 44%
    03:00 +30°C° 0 mm 3 mps 715 mmHg 46%
    04:00 +30°C° 0 mm 3 mps 715 mmHg 49%
    05:00 +29°C° 0 mm 3 mps 715 mmHg 52%
    06:00 +29°C° 0 mm 4 mps 715 mmHg 55%
    07:00 +29°C° 0 mm 4 mps 716 mmHg 58%
    08:00 +30°C° 0 mm 4 mps 716 mmHg 53%
    09:00 +32°C° 0 mm 4 mps 716 mmHg 49%
    10:00 +33°C° 0 mm 3 mps 716 mmHg 44%
    11:00 +35°C° 0 mm 3 mps 716 mmHg 40%
    12:00 +36°C° 0 mm 2 mps 716 mmHg 35%
    13:00 +36°C° 0 mm 1 mps 715 mmHg 31%
    14:00 +37°C° 0 mm 1 mps 715 mmHg 29%
    15:00 +39°C° 0 mm 2 mps 714 mmHg 26%
    16:00 +40°C° 0 mm 2 mps 714 mmHg 24%
    17:00 +40°C° 0 mm 2 mps 714 mmHg 23%
    18:00 +40°C° 0 mm 2 mps 713 mmHg 23%
    19:00 +40°C° 0 mm 3 mps 713 mmHg 22%
    20:00 +39°C° 0 mm 3 mps 713 mmHg 23%
    21:00 +39°C° 0 mm 3 mps 714 mmHg 24%
    22:00 +38°C° 0 mm 3 mps 714 mmHg 25%
    23:00 +38°C° 0.1 mm 2 mps 714 mmHg 26%

    Tomorrow, 26 June, Tuesday

    Time Temperature Precipitation Wind Pressure Humidity
    00:00 +37°C° 0.1 mm 2 mps 714 mmHg 28%
    01:00 +35°C° 0.1 mm 1 mps 714 mmHg 29%
    02:00 +36°C° 0 mm 2 mps 714 mmHg 32%
    03:00 +35°C° 0 mm 3 mps 714 mmHg 34%
    04:00 +35°C° 0 mm 4 mps 713 mmHg 37%
    05:00 +34°C° 0 mm 4 mps 713 mmHg 39%
    06:00 +34°C° 0 mm 4 mps 714 mmHg 42%
    07:00 +33°C° 0 mm 5 mps 714 mmHg 45%
    08:00 +34°C° 0 mm 6 mps 714 mmHg 44%
    09:00 +34°C° 0 mm 7 mps 714 mmHg 43%
    10:00 +35°C° 0 mm 7 mps 715 mmHg 42%
    11:00 +36°C° 0 mm 7 mps 715 mmHg 39%
    12:00 +38°C° 0 mm 6 mps 714 mmHg 36%
    13:00 +40°C° 0 mm 5 mps 714 mmHg 33%
    14:00 +40°C° 0 mm 4 mps 714 mmHg 31%
    15:00 +40°C° 0 mm 4 mps 713 mmHg 30%
    16:00 +39°C° 0 mm 3 mps 713 mmHg 29%
    17:00 +39°C° 0.1 mm 3 mps 713 mmHg 29%
    18:00 +39°C° 0.1 mm 3 mps 713 mmHg 30%
    19:00 +38°C° 0.1 mm 3 mps 713 mmHg 30%
    20:00 +38°C° 0 mm 3 mps 713 mmHg 32%
    21:00 +37°C° 0 mm 3 mps 713 mmHg 34%
    22:00 +37°C° 0 mm 3 mps 713 mmHg 35%
    23:00 +36°C° 0 mm 4 mps 713 mmHg 38%

    Day after tomorrow, 27 June, Wednesday

    Time Temperature Precipitation Wind Pressure Humidity
    00:00 +35°C° 0 mm 4 mps 713 mmHg 40%
    01:00 +35°C° 0 mm 5 mps 713 mmHg 43%
    02:00 +33°C° 0.1 mm 6 mps 713 mmHg 48%
    03:00 +32°C° 0.1 mm 6 mps 713 mmHg 54%
    04:00 +30°C° 0.1 mm 7 mps 712 mmHg 60%
    05:00 +31°C° 0 mm 8 mps 713 mmHg 61%
    06:00 +31°C° 0 mm 8 mps 714 mmHg 62%
    07:00 +29°C° 0 mm 9 mps 714 mmHg 64%
    08:00 +31°C° 0 mm 9 mps 714 mmHg 59%
    09:00 +32°C° 0 mm 8 mps 715 mmHg 55%
    10:00 +33°C° 0 mm 8 mps 715 mmHg 51%
    11:00 +35°C° 0 mm 8 mps 715 mmHg 46%
    12:00 +37°C° 0 mm 8 mps 715 mmHg 42%
    13:00 +38°C° 0 mm 7 mps 715 mmHg 38%
    14:00 +39°C° 0 mm 7 mps 714 mmHg 37%
    15:00 +39°C° 0 mm 6 mps 714 mmHg 37%
    16:00 +39°C° 0 mm 6 mps 713 mmHg 36%
    17:00 +38°C° 2.3 mm 6 mps 713 mmHg 40%
    18:00 +36°C° 2.3 mm 6 mps 713 mmHg 44%
    19:00 +34°C° 2.3 mm 6 mps 713 mmHg 49%
    20:00 +33°C° 8.4 mm 6 mps 714 mmHg 53%
    21:00 +33°C° 8.4 mm 7 mps 715 mmHg 57%
    22:00 +32°C° 8.4 mm 8 mps 716 mmHg 61%
    23:00 +32°C° 0 mm 7 mps 715 mmHg 61%

    28 June, Thursday

    Time Temperature Precipitation Wind Pressure Humidity
    00:00 +32°C° 0 mm 6 mps 715 mmHg 61%
    01:00 +30°C° 0 mm 6 mps 714 mmHg 60%
    02:00 +30°C° 0 mm 6 mps 714 mmHg 61%
    03:00 +30°C° 0 mm 6 mps 714 mmHg 62%
    04:00 +30°C° 0 mm 6 mps 714 mmHg 63%
    05:00 +29°C° 0 mm 6 mps 715 mmHg 63%
    06:00 +29°C° 0 mm 6 mps 715 mmHg 62%
    07:00 +29°C° 0 mm 6 mps 716 mmHg 62%
    08:00 +30°C° 0 mm 6 mps 716 mmHg 59%
    09:00 +30°C° 0 mm 6 mps 716 mmHg 57%
    10:00 +32°C° 0 mm 6 mps 717 mmHg 54%
    11:00 +33°C° 0 mm 6 mps 716 mmHg 50%
    12:00 +34°C° 0 mm 6 mps 716 mmHg 46%
    13:00 +35°C° 0 mm 6 mps 716 mmHg 42%
    14:00 +36°C° 0 mm 5 mps 715 mmHg 41%
    15:00 +36°C° 0 mm 5 mps 715 mmHg 39%
    16:00 +37°C° 0 mm 4 mps 714 mmHg 37%
    17:00 +36°C° 0 mm 4 mps 714 mmHg 38%
    18:00 +36°C° 0 mm 4 mps 714 mmHg 39%
    19:00 +36°C° 0 mm 3 mps 714 mmHg 40%
    20:00 +35°C° 0 mm 4 mps 714 mmHg 42%
    21:00 +35°C° 0 mm 4 mps 715 mmHg 44%
    22:00 +34°C° 0 mm 5 mps 715 mmHg 47%
    23:00 +33°C° 0.5 mm 5 mps 715 mmHg 49%

    29 June, Friday

    Time Temperature Precipitation Wind Pressure Humidity
    00:00 +33°C° 0.5 mm 5 mps 715 mmHg 52%
    01:00 +32°C° 0.5 mm 5 mps 714 mmHg 54%
    02:00 +32°C° 0.1 mm 5 mps 714 mmHg 56%
    03:00 +30°C° 0.1 mm 5 mps 714 mmHg 57%
    04:00 +30°C° 0.1 mm 4 mps 714 mmHg 59%
    05:00 +30°C° 0 mm 4 mps 715 mmHg 60%
    06:00 +29°C° 0 mm 5 mps 715 mmHg 62%
    07:00 +29°C° 0 mm 5 mps 715 mmHg 63%
    08:00 +30°C° 0.6 mm 5 mps 715 mmHg 62%
    09:00 +30°C° 0.6 mm 6 mps 716 mmHg 60%
    10:00 +32°C° 0.6 mm 6 mps 716 mmHg 59%
    11:00 +33°C° 0 mm 6 mps 716 mmHg 53%
    12:00 +34°C° 0 mm 5 mps 715 mmHg 47%
    13:00 +35°C° 0 mm 5 mps 714 mmHg 41%
    14:00 +36°C° 0 mm 4 mps 714 mmHg 39%
    15:00 +36°C° 0 mm 3 mps 714 mmHg 36%
    16:00 +37°C° 0 mm 2 mps 713 mmHg 33%
    17:00 +37°C° 0.1 mm 2 mps 713 mmHg 34%
    18:00 +37°C° 0.1 mm 2 mps 713 mmHg 34%
    19:00 +36°C° 0.1 mm 2 mps 714 mmHg 35%
    20:00 +36°C° 0.5 mm 2 mps 714 mmHg 37%
    21:00 +35°C° 0.5 mm 2 mps 714 mmHg 40%
    22:00 +34°C° 0.5 mm 3 mps 715 mmHg 42%
    23:00 +33°C° 2.2 mm 3 mps 714 mmHg 48%

    30 June, Saturday

    Time Temperature Precipitation Wind Pressure Humidity
    00:00 +32°C° 2.2 mm 4 mps 714 mmHg 54%
    01:00 +30°C° 2.2 mm 4 mps 713 mmHg 60%
    02:00 +30°C° 0.3 mm 4 mps 713 mmHg 60%
    03:00 +29°C° 0.3 mm 4 mps 713 mmHg 61%
    04:00 +29°C° 0.3 mm 4 mps 713 mmHg 62%
    05:00 +29°C° 0 mm 4 mps 713 mmHg 62%
    06:00 +29°C° 0 mm 4 mps 714 mmHg 63%
    07:00 +29°C° 0 mm 5 mps 714 mmHg 64%
    08:00 +30°C° 0.2 mm 5 mps 714 mmHg 61%
    09:00 +30°C° 0.2 mm 5 mps 715 mmHg 58%
    10:00 +32°C° 0.2 mm 6 mps 715 mmHg 56%
    11:00 +32°C° 2 mm 5 mps 715 mmHg 54%
    12:00 +33°C° 2 mm 4 mps 714 mmHg 53%
    13:00 +33°C° 2 mm 3 mps 714 mmHg 52%
    14:00 +33°C° 0.4 mm 3 mps 713 mmHg 50%
    15:00 +32°C° 0.4 mm 2 mps 713 mmHg 49%
    16:00 +34°C° 0.4 mm 2 mps 712 mmHg 48%
    17:00 +34°C° 0 mm 2 mps 713 mmHg 48%
    18:00 +34°C° 0 mm 2 mps 713 mmHg 48%
    19:00 +34°C° 0 mm 2 mps 713 mmHg 48%
    20:00 +32°C° 0 mm 2 mps 713 mmHg 50%
    21:00 +32°C° 0 mm 2 mps 714 mmHg 52%
    22:00 +31°C° 0 mm 2 mps 714 mmHg 54%
    23:00 +31°C° 0.1 mm 3 mps 714 mmHg 55%
    Show more